Location: Unspecified
(29.9680°N, 0.0000°E)
Time: 22:43:04
(UTC+00:00)

Vanguard 2 Rocket - Visible Passes

Search period start: 17 June 2019 00:00
Search period end: 27 June 2019 00:00
Orbit: 554 x 3326 km, 32.9° (Epoch: 17 June)

Date Brightness Start Highest point End Pass type
(mag) Time Alt. Az. Time Alt. Az. Time Alt. Az.
17 Jun 9.1 00:10:44 10° W 00:23:28 82° N 00:43:30 10° E visible
17 Jun 9.5 02:25:49 10° WNW 02:42:42 87° NNE 03:03:21 10° ESE visible
17 Jun 8.2 20:59:03 10° SW 21:06:40 50° SE 21:20:00 10° ENE visible
17 Jun 8.7 23:11:05 10° WSW 23:21:53 87° NNW 23:40:26 10° ENE visible
18 Jun 9.3 01:25:22 10° W 01:40:14 82° N 02:01:00 10° E visible
18 Jun 9.6 03:41:07 10° WNW 03:59:29 74° SSW 04:19:01 10° SE visible
18 Jun 8.4 20:01:02 10° SSW 20:07:12 32° SE 20:17:01 10° E visible
18 Jun 8.3 22:11:48 10° WSW 22:20:54 83° SSE 22:37:22 10° ENE visible
19 Jun 9.1 00:25:18 10° W 00:38:05 80° N 00:58:09 10° E visible
19 Jun 9.5 02:40:15 10° WNW 02:57:06 84° SSW 03:17:38 10° ESE visible
19 Jun 8.0 21:12:56 10° SW 21:20:34 67° SSE 21:34:30 10° ENE visible
19 Jun 8.8 23:25:35 10° W 23:36:25 80° N 23:55:00 10° E visible
20 Jun 9.3 01:39:52 10° WNW 01:54:45 88° NNE 02:15:32 10° ESE visible
20 Jun 9.6 03:55:37 10° WNW 04:13:27 61° SSW 04:32:36 10° SE visible
20 Jun 7.9 20:14:28 10° SW 20:20:49 47° SE 20:31:52 10° ENE visible
20 Jun 8.4 22:26:13 10° W 22:35:18 85° NNW 22:51:50 10° ENE visible
21 Jun 9.1 00:39:51 10° W 00:52:42 82° N 01:12:46 10° E visible
21 Jun 9.4 02:54:42 10° WNW 03:11:17 72° SSW 03:31:34 10° SE visible
21 Jun 8.0 21:27:08 10° WSW 21:34:45 84° SSE 21:48:56 10° ENE visible
21 Jun 8.8 23:40:08 10° W 23:51:02 79° N 00:09:38 10° E visible
22 Jun 9.2 01:54:18 10° WNW 02:09:07 83° SSW 02:29:45 10° ESE visible
22 Jun 9.7 04:10:19 10° WNW 04:27:16 48° SW 04:45:38 10° SSE visible
22 Jun 7.6 20:28:23 10° SW 20:34:47 67° SSE 20:46:24 10° ENE visible
22 Jun 8.5 22:40:44 10° W 22:49:52 79° N 23:06:25 10° E visible
23 Jun 9.0 00:54:19 10° WNW 01:07:11 89° NNE 01:27:16 10° ESE visible
23 Jun 9.5 03:09:13 10° WNW 03:25:18 59° SSW 03:45:02 10° SE visible
23 Jun 7.6 19:29:59 10° SW 19:35:19 45° SE 19:44:14 10° ENE visible
23 Jun 8.1 21:41:33 10° W 21:49:11 83° N 22:03:24 10° ENE visible
23 Jun 8.8 23:54:40 10° W 00:05:37 82° N 00:24:16 10° E visible
24 Jun 9.2 02:08:45 10° WNW 02:23:20 70° SSW 02:43:37 10° SE visible
24 Jun 9.9 04:25:30 10° W 04:41:02 36° SW 04:57:59 10° SSE visible
24 Jun 7.6 20:42:37 10° WSW 20:49:02 86° SSE 21:00:50 10° ENE visible
24 Jun 8.5 22:55:16 10° W 23:04:28 78° N 23:21:03 10° E visible
25 Jun 9.0 01:08:45 10° WNW 01:21:33 81° SSW 01:41:28 10° ESE visible
25 Jun 9.6 03:24:00 10° W 03:39:16 46° SW 03:57:56 10° SSE visible
25 Jun 7.2 19:43:57 10° WSW 19:49:21 66° SSE 19:58:47 10° ENE visible
25 Jun 8.1 21:56:05 10° W 22:03:46 76° N 22:17:59 10° E visible
26 Jun 8.7 00:09:07 10° WNW 00:20:05 90° NNE 00:38:44 10° ESE visible
26 Jun 9.3 02:23:19 10° WNW 02:37:28 56° SSW 02:56:58 10° SE visible
26 Jun 7.7 20:57:04 10° W 21:03:29 80° N 21:15:19 10° ENE visible
26 Jun 8.4 23:09:46 10° WNW 23:19:00 82° N 23:35:41 10° E visible
